QPF
0.12 0.12 0.10 0.09 0.09 0.09 0.09 0.07 0.07 0.05 0.04 0.04 0.02 0.02 0.02 0.02 0.03 0.02 0.03 0.02 0.01 0.01 0.01 0.01 0.02 0.03 0.02 0.02 0.02 0.02 0.02 0.03 0.03 0.05 0.06 0.05 0.04 0.04
0.15 0.16 0.14 0.12 0.10 0.08 0.08 0.06 0.06 0.06 0.04 0.03 0.03 0.03 0.04 0.04 0.03 0.02 0.02 0.02 0.02 0.02 0.02 0.02 0.02 0.03 0.03 0.03 0.04 0.03 0.03 0.03 0.03 0.04 0.04 0.04 0.04 0.03
0.16 0.16 0.14 0.13 0.11 0.07 0.08 0.09 0.07 0.06 0.06 0.05 0.04 0.06 0.07 0.05 0.03 0.01 0.02 0.02 0.02 0.03 0.02 0.02 0.02 0.02 0.02 0.03 0.04 0.04 0.04 0.05 0.06 0.06 0.06 0.05 0.04 0.03
0.11 0.11 0.09 0.09 0.09 0.07 0.09 0.07 0.07 0.07 0.07 0.06 0.06 0.08 0.10 0.07 0.06 0.04 0.02 0.02 0.03 0.05 0.04 0.03 0.02 0.02 0.01 0.02 0.03 0.04 0.05 0.06 0.06 0.05 0.05 0.05 0.04 0.03
0.05 0.05 0.06 0.07 0.07 0.08 0.07 0.07 0.06 0.06 0.08 0.06 0.06 0.07 0.09 0.08 0.10 0.07 0.04 0.06 0.06 0.06 0.05 0.04 0.03 0.02 0.01 0.01 0.02 0.03 0.05 0.05 0.05 0.03 0.02 0.02 0.02 0.02
0.04 0.04 0.04 0.05 0.06 0.07 0.07 0.08 0.07 0.07 0.07 0.06 0.06 0.06 0.06 0.09 0.09 0.08 0.08 0.07 0.07 0.05 0.05 0.03 0.02 0.02 0.01 0.01 0.01 0.02 0.03 0.04 0.05 0.04 0.04 0.03 0.02 0.02
0.04 0.04 0.03 0.04 0.04 0.04 0.04 0.06 0.07 0.07 0.07 0.08 0.09 0.08 0.07 0.09 0.08 0.08 0.09 0.09 0.08 0.06 0.04 0.03 0.02 0.02 0.02 0.02 0.02 0.01 0.01 0.02 0.03 0.04 0.04 0.04 0.03 0.02
0.05 0.04 0.04 0.04 0.03 0.03 0.03 0.05 0.07 0.08 0.08 0.10 0.11 0.12 0.11 0.11 0.11 0.11 0.10 0.10 0.08 0.06 0.05 0.04 0.03 0.03 0.02 0.02 0.03 0.03 0.02 0.01 0.01 0.02 0.03 0.04 0.04 0.04
0.05 0.05 0.03 0.03 0.04 0.04 0.04 0.05 0.05 0.05 0.06 0.08 0.10 0.11 0.12 0.12 0.11 0.11 0.11 0.09 0.06 0.05 0.06 0.04 0.03 0.03 0.02 0.02 0.03 0.03 0.03 0.02 0.02 0.01 0.01 0.02 0.03 0.04
0.05 0.04 0.03 0.03 0.04 0.04 0.04 0.04 0.03 0.03 0.04 0.05 0.04 0.04 0.07 0.07 0.07 0.07 0.08 0.08 0.06 0.05 0.05 0.04 0.03 0.03 0.02 0.03 0.03 0.03 0.03 0.03 0.02 0.01 0.01 0.01 0.01 0.02
0.04 0.04 0.03 0.02 0.04 0.04 0.03 0.03 0.02 0.02 0.02 0.02 0.02 0.02 0.04 0.05 0.04 0.05 0.06 0.07 0.06 0.06 0.05 0.05 0.04 0.04 0.04 0.04 0.03 0.04 0.03 0.03 0.02 0.01 0.01 0.01 0.01 0.01
0.05 0.04 0.03 0.04 0.05 0.03 0.02 0.03 0.03 0.02 0.02 0.02 0.02 0.02 0.02 0.03 0.03 0.03 0.05 0.07 0.10 0.09 0.08 0.07 0.06 0.06 0.06 0.04 0.04 0.04 0.05 0.05 0.04 0.03 0.02 0.02 0.02 0.02
0.05 0.04 0.04 0.04 0.03 0.02 0.02 0.02 0.02 0.02 0.02 0.02 0.02 0.03 0.03 0.03 0.04 0.03 0.03 0.05 0.08 0.09 0.08 0.09 0.08 0.07 0.07 0.06 0.06 0.05 0.05 0.05 0.05 0.04 0.03 0.02 0.02 0.02
0.06 0.05 0.05 0.06 0.05 0.03 0.03 0.02 0.02 0.02 0.02 0.03 0.03 0.03 0.03 0.03 0.04 0.05 0.06 0.06 0.06 0.07 0.07 0.07 0.07 0.06 0.06 0.06 0.05 0.04 0.04 0.04 0.05 0.04 0.03 0.03 0.02 0.01
0.04 0.05 0.05 0.05 0.05 0.04 0.03 0.03 0.04 0.03 0.03 0.03 0.03 0.03 0.02 0.02 0.03 0.04 0.05 0.06 0.06 0.05 0.05 0.06 0.06 0.06 0.06 0.06 0.05 0.04 0.04 0.04 0.04 0.04 0.04 0.04 0.03 0.03
0.03 0.03 0.03 0.03 0.04 0.03 0.03 0.04 0.04 0.04 0.04 0.03 0.04 0.05 0.05 0.04 0.03 0.03 0.04 0.05 0.05 0.04 0.03 0.04 0.06 0.07 0.06 0.06 0.06 0.05 0.05 0.04 0.03 0.03 0.03 0.04 0.05 0.04
0.03 0.03 0.03 0.02 0.02 0.02 0.02 0.03 0.04 0.05 0.05 0.05 0.06 0.07 0.06 0.06 0.04 0.03 0.03 0.04 0.04 0.03 0.03 0.04 0.05 0.07 0.07 0.06 0.06 0.06 0.05 0.05 0.05 0.05 0.06 0.05 0.04 0.04
0.04 0.04 0.03 0.03 0.03 0.03 0.03 0.04 0.04 0.05 0.05 0.06 0.06 0.06 0.06 0.06 0.05 0.04 0.04 0.04 0.05 0.05 0.05 0.05 0.06 0.08 0.08 0.07 0.06 0.06 0.06 0.06 0.07 0.08 0.08 0.07 0.05 0.04
0.06 0.07 0.06 0.05 0.04 0.04 0.04 0.04 0.04 0.05 0.05 0.06 0.06 0.06 0.07 0.07 0.07 0.05 0.05 0.05 0.06 0.06 0.06 0.07 0.07 0.08 0.08 0.07 0.06 0.05 0.06 0.06 0.07 0.08 0.08 0.08 0.07 0.05
0.11 0.09 0.08 0.07 0.04 0.04 0.04 0.04 0.04 0.04 0.05 0.06 0.07 0.06 0.06 0.07 0.07 0.06 0.05 0.06 0.06 0.05 0.06 0.06 0.06 0.07 0.07 0.07 0.06 0.05 0.05 0.05 0.05 0.06 0.07 0.07 0.06 0.06
0.11 0.11 0.10 0.09 0.07 0.05 0.04 0.04 0.05 0.05 0.06 0.07 0.07 0.07 0.06 0.05 0.05 0.04 0.04 0.04 0.04 0.04 0.05 0.05 0.05 0.06 0.07 0.06 0.05 0.05 0.06 0.06 0.05 0.06 0.05 0.05 0.04 0.04
0.07 0.09 0.08 0.07 0.07 0.07 0.06 0.06 0.07 0.07 0.08 0.07 0.07 0.06 0.06 0.06 0.05 0.05 0.05 0.05 0.05 0.05 0.05 0.05 0.07 0.08 0.07 0.06 0.05 0.04 0.05 0.05 0.04 0.04 0.03 0.03 0.03 0.03
0.07 0.08 0.09 0.08 0.07 0.06 0.05 0.05 0.05 0.06 0.07 0.07 0.06 0.06 0.05 0.05 0.05 0.05 0.06 0.06 0.05 0.05 0.06 0.07 0.09 0.10 0.08 0.08 0.06 0.05 0.05 0.05 0.04 0.04 0.03 0.02 0.03 0.03
MSLP
1013.07 1013.25 1013.49 1013.75 1014.00 1014.21 1014.35 1014.39 1014.33 1014.16 1013.91 1013.62 1013.31 1013.03 1012.80 1012.63 1012.56 1012.56 1012.63 1012.76 1012.94 1013.13 1013.33 1013.52 1013.68 1013.81 1013.89 1013.92 1013.89 1013.81 1013.67 1013.47 1013.22 1012.92 1012.59 1012.23 1011.86 1011.49
1012.46 1012.63 1012.85 1013.11 1013.38 1013.64 1013.85 1013.97 1014.01 1013.94 1013.79 1013.58 1013.32 1013.06 1012.81 1012.60 1012.45 1012.37 1012.34 1012.38 1012.48 1012.61 1012.77 1012.95 1013.13 1013.29 1013.42 1013.51 1013.55 1013.52 1013.43 1013.27 1013.04 1012.75 1012.42 1012.05 1011.67 1011.30
1011.89 1012.05 1012.27 1012.53 1012.81 1013.10 1013.36 1013.56 1013.67 1013.71 1013.65 1013.52 1013.33 1013.10 1012.86 1012.63 1012.42 1012.25 1012.14 1012.08 1012.09 1012.15 1012.27 1012.43 1012.61 1012.81 1012.99 1013.14 1013.24 1013.27 1013.22 1013.09 1012.89 1012.62 1012.29 1011.93 1011.55 1011.19
1011.39 1011.56 1011.79 1012.05 1012.35 1012.66 1012.95 1013.20 1013.39 1013.50 1013.54 1013.49 1013.37 1013.19 1012.97 1012.73 1012.48 1012.26 1012.07 1011.93 1011.85 1011.84 1011.91 1012.04 1012.21 1012.42 1012.64 1012.83 1012.98 1013.05 1013.04 1012.95 1012.76 1012.50 1012.18 1011.83 1011.47 1011.13
1010.97 1011.18 1011.43 1011.71 1012.02 1012.35 1012.66 1012.95 1013.19 1013.36 1013.46 1013.49 1013.43 1013.31 1013.13 1012.90 1012.65 1012.38 1012.14 1011.94 1011.79 1011.72 1011.73 1011.82 1011.98 1012.18 1012.41 1012.62 1012.79 1012.89 1012.90 1012.82 1012.64 1012.39 1012.08 1011.74 1011.40 1011.09
1010.63 1010.90 1011.19 1011.50 1011.83 1012.16 1012.49 1012.79 1013.05 1013.27 1013.42 1013.50 1013.51 1013.44 1013.30 1013.11 1012.87 1012.60 1012.33 1012.09 1011.90 1011.77 1011.73 1011.78 1011.90 1012.08 1012.29 1012.50 1012.66 1012.76 1012.77 1012.69 1012.51 1012.26 1011.96 1011.63 1011.32 1011.04
1010.37 1010.71 1011.04 1011.39 1011.74 1012.08 1012.40 1012.70 1012.97 1013.20 1013.38 1013.50 1013.55 1013.54 1013.45 1013.30 1013.09 1012.85 1012.58 1012.33 1012.11 1011.96 1011.88 1011.88 1011.96 1012.10 1012.27 1012.45 1012.58 1012.65 1012.65 1012.55 1012.36 1012.11 1011.82 1011.51 1011.22 1010.97
1010.19 1010.59 1010.98 1011.36 1011.73 1012.07 1012.38 1012.67 1012.92 1013.14 1013.32 1013.45 1013.54 1013.56 1013.52 1013.42 1013.26 1013.06 1012.82 1012.58 1012.37 1012.20 1012.09 1012.06 1012.10 1012.20 1012.32 1012.44 1012.53 1012.57 1012.53 1012.41 1012.22 1011.96 1011.68 1011.39 1011.13 1010.91
1010.08 1010.55 1010.99 1011.41 1011.78 1012.11 1012.41 1012.66 1012.87 1013.06 1013.22 1013.35 1013.44 1013.49 1013.49 1013.44 1013.33 1013.17 1012.98 1012.78 1012.59 1012.43 1012.32 1012.27 1012.27 1012.32 1012.40 1012.47 1012.51 1012.50 1012.43 1012.29 1012.08 1011.84 1011.56 1011.30 1011.06 1010.86
1010.08 1010.59 1011.08 1011.51 1011.89 1012.20 1012.45 1012.66 1012.83 1012.96 1013.08 1013.18 1013.26 1013.31 1013.34 1013.32 1013.26 1013.16 1013.03 1012.89 1012.74 1012.61 1012.51 1012.45 1012.44 1012.46 1012.49 1012.52 1012.51 1012.47 1012.37 1012.21 1012.00 1011.76 1011.51 1011.26 1011.04 1010.87
1010.18 1010.73 1011.23 1011.66 1012.02 1012.31 1012.52 1012.67 1012.77 1012.85 1012.91 1012.97 1013.02 1013.06 1013.09 1013.10 1013.08 1013.03 1012.96 1012.87 1012.78 1012.69 1012.63 1012.58 1012.57 1012.57 1012.58 1012.57 1012.54 1012.47 1012.35 1012.18 1011.98 1011.75 1011.52 1011.31 1011.12 1010.96
1010.40 1010.95 1011.44 1011.85 1012.18 1012.42 1012.58 1012.67 1012.71 1012.72 1012.72 1012.72 1012.73 1012.75 1012.77 1012.79 1012.80 1012.80 1012.78 1012.75 1012.72 1012.68 1012.66 1012.65 1012.64 1012.65 1012.65 1012.63 1012.58 1012.49 1012.37 1012.21 1012.02 1011.82 1011.62 1011.43 1011.27 1011.13
1010.70 1011.21 1011.67 1012.04 1012.32 1012.50 1012.60 1012.64 1012.62 1012.57 1012.51 1012.46 1012.43 1012.42 1012.42 1012.44 1012.47 1012.50 1012.52 1012.54 1012.56 1012.58 1012.60 1012.63 1012.65 1012.67 1012.68 1012.66 1012.61 1012.52 1012.40 1012.26 1012.09 1011.92 1011.75 1011.60 1011.47 1011.37
1011.02 1011.47 1011.86 1012.16 1012.38 1012.51 1012.55 1012.53 1012.46 1012.37 1012.27 1012.18 1012.11 1012.07 1012.06 1012.08 1012.11 1012.16 1012.22 1012.28 1012.34 1012.41 1012.47 1012.53 1012.58 1012.62 1012.64 1012.63 1012.59 1012.51 1012.41 1012.29 1012.15 1012.02 1011.89 1011.78 1011.69 1011.62
1011.28 1011.64 1011.94 1012.17 1012.32 1012.38 1012.38 1012.32 1012.22 1012.10 1011.98 1011.87 1011.78 1011.73 1011.71 1011.72 1011.76 1011.82 1011.89 1011.98 1012.07 1012.17 1012.27 1012.36 1012.43 1012.49 1012.52 1012.52 1012.49 1012.43 1012.35 1012.26 1012.16 1012.06 1011.98 1011.92 1011.87 1011.85
1011.41 1011.66 1011.87 1012.01 1012.09 1012.10 1012.06 1011.99 1011.88 1011.75 1011.63 1011.52 1011.44 1011.39 1011.37 1011.38 1011.42 1011.49 1011.57 1011.67 1011.78 1011.90 1012.01 1012.12 1012.20 1012.27 1012.31 1012.32 1012.30 1012.26 1012.20 1012.14 1012.07 1012.02 1011.99 1011.98 1011.99 1012.01
1011.35 1011.49 1011.60 1011.66 1011.68 1011.66 1011.60 1011.52 1011.42 1011.32 1011.23 1011.14 1011.08 1011.05 1011.04 1011.06 1011.11 1011.18 1011.27 1011.38 1011.50 1011.62 1011.73 1011.84 1011.92 1011.99 1012.03 1012.04 1012.03 1012.01 1011.97 1011.94 1011.91 1011.90 1011.92 1011.97 1012.03 1012.12
1011.09 1011.14 1011.16 1011.16 1011.14 1011.09 1011.04 1010.97 1010.91 1010.84 1010.79 1010.75 1010.73 1010.72 1010.74 1010.78 1010.84 1010.92 1011.01 1011.12 1011.23 1011.35 1011.45 1011.55 1011.63 1011.69 1011.72 1011.73 1011.73 1011.71 1011.69 1011.69 1011.70 1011.74 1011.81 1011.91 1012.03 1012.17
1010.68 1010.66 1010.63 1010.58 1010.53 1010.49 1010.44 1010.41 1010.38 1010.36 1010.36 1010.37 1010.39 1010.42 1010.47 1010.53 1010.61 1010.70 1010.80 1010.90 1011.01 1011.12 1011.21 1011.30 1011.37 1011.41 1011.44 1011.44 1011.44 1011.43 1011.43 1011.45 1011.50 1011.58 1011.69 1011.84 1012.01 1012.21
1010.20 1010.14 1010.08 1010.02 1009.97 1009.93 1009.90 1009.90 1009.91 1009.94 1009.98 1010.03 1010.09 1010.16 1010.24 1010.32 1010.41 1010.51 1010.61 1010.72 1010.83 1010.94 1011.03 1011.11 1011.16 1011.20 1011.22 1011.22 1011.22 1011.22 1011.23 1011.27 1011.34 1011.46 1011.61 1011.80 1012.02 1012.25
1009.74 1009.68 1009.61 1009.55 1009.51 1009.49 1009.49 1009.52 1009.56 1009.62 1009.68 1009.76 1009.84 1009.93 1010.02 1010.12 1010.23 1010.34 1010.45 1010.57 1010.69 1010.80 1010.90 1010.97 1011.03 1011.07 1011.08 1011.08 1011.08 1011.09 1011.11 1011.16 1011.26 1011.39 1011.57 1011.79 1012.03 1012.29
1009.38 1009.33 1009.28 1009.25 1009.23 1009.23 1009.25 1009.29 1009.35 1009.41 1009.49 1009.56 1009.65 1009.73 1009.82 1009.92 1010.03 1010.15 1010.27 1010.41 1010.54 1010.67 1010.78 1010.87 1010.94 1010.99 1011.01 1011.01 1011.01 1011.02 1011.05 1011.11 1011.21 1011.35 1011.54 1011.77 1012.03 1012.30
1009.15 1009.14 1009.12 1009.12 1009.13 1009.15 1009.19 1009.23 1009.28 1009.33 1009.38 1009.44 1009.49 1009.55 1009.62 1009.70 1009.80 1009.91 1010.05 1010.19 1010.35 1010.49 1010.63 1010.75 1010.84 1010.90 1010.93 1010.95 1010.95 1010.96 1010.98 1011.04 1011.13 1011.27 1011.45 1011.68 1011.93 1012.20
Thickness
5750 5749 5747 5748 5748 5746 5744 5740 5732 5726 5729 5736 5740 5744 5744 5743 5741 5739 5738 5736 5735 5733 5731 5729 5726 5724 5722 5720 5717 5715 5713 5711 5709 5707 5705 5703 5701 5699
5747 5745 5743 5743 5744 5744 5742 5740 5738 5732 5729 5735 5737 5740 5741 5740 5738 5736 5735 5734 5732 5731 5729 5727 5724 5722 5720 5718 5715 5713 5711 5708 5706 5704 5702 5700 5698 5696
5744 5741 5739 5739 5738 5739 5738 5737 5735 5733 5728 5731 5735 5736 5736 5735 5734 5733 5731 5730 5729 5728 5726 5723 5721 5719 5717 5715 5712 5710 5708 5706 5703 5700 5698 5696 5694 5692
5739 5738 5736 5736 5733 5733 5732 5732 5731 5731 5727 5725 5728 5729 5730 5731 5729 5728 5727 5727 5726 5724 5722 5720 5718 5715 5713 5711 5709 5707 5704 5702 5700 5697 5694 5692 5690 5688
5737 5734 5733 5731 5728 5728 5727 5727 5727 5728 5726 5723 5722 5724 5725 5725 5723 5722 5722 5721 5720 5719 5717 5715 5713 5711 5709 5707 5705 5702 5700 5697 5695 5692 5689 5687 5685 5683
5734 5732 5731 5728 5726 5724 5723 5723 5722 5721 5720 5719 5717 5718 5718 5719 5717 5714 5713 5714 5713 5713 5711 5709 5707 5705 5703 5701 5699 5697 5695 5692 5689 5687 5685 5682 5680 5678
5731 5729 5728 5726 5724 5722 5720 5718 5717 5715 5714 5712 5711 5711 5710 5709 5708 5708 5706 5706 5706 5706 5704 5703 5701 5698 5696 5694 5692 5691 5689 5686 5684 5682 5679 5677 5675 5673
5725 5724 5723 5722 5720 5718 5716 5715 5713 5710 5708 5706 5705 5703 5703 5703 5703 5702 5699 5696 5694 5699 5697 5695 5695 5693 5692 5690 5688 5686 5683 5681 5678 5676 5674 5672 5670 5667
5720 5718 5719 5719 5716 5713 5712 5711 5709 5708 5706 5703 5700 5700 5699 5699 5697 5695 5694 5692 5691 5693 5690 5686 5687 5686 5686 5686 5684 5681 5678 5676 5673 5671 5668 5666 5664 5661
5714 5713 5712 5711 5710 5707 5706 5705 5703 5703 5701 5700 5698 5698 5697 5695 5693 5691 5690 5688 5688 5687 5685 5679 5679 5679 5680 5679 5678 5676 5673 5670 5668 5666 5663 5661 5658 5656
5709 5707 5706 5704 5701 5699 5698 5696 5696 5696 5697 5696 5695 5693 5691 5690 5688 5684 5682 5678 5676 5676 5677 5674 5673 5671 5671 5670 5670 5669 5667 5664 5661 5659 5657 5655 5652 5650
5701 5700 5698 5696 5694 5691 5690 5689 5687 5688 5688 5688 5687 5686 5685 5684 5682 5679 5676 5671 5669 5668 5670 5666 5664 5662 5660 5663 5662 5661 5659 5657 5655 5653 5651 5649 5646 5643
5692 5691 5690 5688 5686 5684 5682 5681 5681 5680 5680 5680 5680 5679 5678 5677 5675 5674 5671 5667 5664 5662 5663 5660 5657 5655 5653 5653 5653 5653 5652 5650 5647 5646 5644 5643 5641 5638
5683 5683 5681 5679 5678 5677 5676 5675 5674 5673 5672 5671 5671 5670 5670 5669 5668 5667 5666 5663 5661 5659 5658 5655 5652 5649 5646 5644 5644 5645 5644 5644 5642 5640 5639 5637 5634 5633
5675 5674 5672 5670 5670 5669 5669 5668 5666 5665 5664 5663 5662 5662 5663 5662 5661 5659 5658 5656 5654 5653 5651 5649 5646 5644 5641 5639 5639 5637 5636 5637 5637 5635 5633 5631 5629 5627
5665 5664 5663 5663 5663 5663 5661 5659 5658 5658 5657 5655 5654 5654 5654 5652 5651 5649 5647 5646 5643 5643 5643 5642 5640 5638 5634 5634 5633 5632 5631 5630 5630 5629 5628 5626 5625 5623
5656 5655 5656 5656 5656 5655 5654 5653 5652 5651 5649 5648 5646 5644 5643 5642 5641 5640 5638 5637 5634 5632 5633 5633 5633 5631 5630 5627 5625 5625 5625 5625 5624 5622 5620 5619 5619 5618
5647 5648 5649 5649 5648 5647 5646 5645 5644 5643 5642 5640 5638 5636 5634 5633 5631 5631 5629 5627 5625 5625 5624 5624 5623 5621 5619 5620 5621 5619 5618 5617 5616 5615 5613 5611 5612 5612
5640 5641 5641 5640 5640 5638 5637 5636 5634 5633 5632 5631 5629 5628 5626 5624 5622 5621 5619 5618 5617 5616 5616 5616 5614 5612 5609 5609 5612 5612 5611 5610 5609 5607 5606 5605 5605 5605
5633 5632 5631 5631 5630 5629 5627 5625 5623 5622 5621 5620 5619 5617 5616 5614 5613 5611 5610 5609 5608 5608 5608 5607 5606 5605 5603 5603 5604 5605 5605 5604 5602 5600 5599 5598 5598 5598
5624 5623 5622 5621 5620 5618 5616 5614 5613 5611 5610 5609 5607 5606 5605 5604 5603 5603 5602 5600 5599 5600 5599 5600 5600 5600 5599 5597 5595 5596 5597 5596 5596 5593 5592 5590 5589 5588
5615 5614 5612 5611 5608 5606 5604 5603 5601 5599 5598 5597 5595 5594 5594 5593 5593 5593 5593 5592 5592 5592 5592 5593 5593 5592 5590 5588 5587 5587 5588 5588 5587 5587 5586 5586 5583 5582
5604 5603 5602 5600 5597 5595 5593 5591 5589 5588 5586 5584 5584 5583 5583 5583 5582 5582 5583 5583 5583 5583 5583 5583 5583 5582 5581 5580 5580 5580 5580 5579 5578 5577 5577 5578 5577 5578